Location: Roland
(31.1349°N, 85.4372°W)
Time: 21:41:03
(UTC+00:00)

Explorer 11/Cluster Stage 4 - Pass Details

Date: 26 April 2021
Orbit: 467 x 1257 km, 28.8° (Epoch: 07 May)

Event Time Altitude Azimuth Distance (km) Brightness Sun altitude
Exits shadow 08:54:03 17° 124° (SE) 1,266 7.8 -25.3°
Drops below altitude 10° 08:55:22 10° 107° (ESE) 1,637 8.7 -25.1°
Sets 08:57:44 0° 92° (E) 2,487 10.0 -24.7°
